Home   Weather   Almaty   Past weeks

Flag for Kazakhstan Past Weather in Almaty, Kazakhstan — Yesterday and Last 2 Weeks

Now
50 °F

Mostly cloudy.


Feels Like: 49 °F
Forecast: 40 / 60 °F
Wind: 3 mph from Southwest

Location: Almaty Airport

Current Time: Sep 24, 2017 at 2:12:35 am

Latest Report: Sep 24, 2017 at 1:30 am


Visibility: N/A

Pressure: 30.18 "Hg (27.44 "Hg at 790m altitude)

Humidity: 71%

Dew Point: 41 °F

Location of AlmatyLocation

Past Weather in Almaty — Graph

°F

Almaty Temperature Yesterday

Maximum temperature yesterday: 79 °F (at 12:30 pm)
Minimum temperature yesterday: 50 °F (at 11:00 pm)
Average temperature yesterday: 64 °F

High & Low Weather Summary for the Past Weeks

 TemperatureHumidityPressure
High88 °F (Sep 10, 1:30 pm)94% (Sep 23, 9:00 pm)30.33 "Hg (Sep 23, 9:00 pm)
Low39 °F (Sep 13, 6:00 am)13% (Sep 19, 2:30 pm)29.77 "Hg (Sep 10, 5:00 pm)
Average65 °F43%30.03 "Hg
* Reported Sep 9 1:00 am — Sep 24 1:00 am, Almaty. Weather by CustomWeather, © 2017

Note: Actual official high and low records may vary slightly from our data, if they occured in-between our weather recording intervals... More about our weather records

Advertising

Almaty Weather History for the Previous 24 Hours

Scroll right to see more
 ConditionsComfort  
Time TempWeatherWind HumidityBarometerVisibility
1:00 am
Sun, Sep 24
50 °FMostly cloudy.3 mph76%30.18 "HgN/A
12:30 am50 °FMostly cloudy.3 mph82%30.18 "HgN/A
12:00 am50 °FMostly cloudy.1 mph76%30.15 "HgN/A
11:30 pm
Sat, Sep 23
50 °FMostly cloudy.No wind82%30.18 "HgN/A
11:00 pm50 °FMostly cloudy.1 mph82%30.15 "HgN/A
10:30 pm52 °FMostly cloudy.1 mph94%30.15 "HgN/A
10:00 pm54 °FMostly cloudy.3 mph88%30.15 "HgN/A
9:30 pm54 °FSprinkles. Fog.3 mph88%30.15 "Hg3 mi
9:00 pm52 °FSprinkles. Fog.8 mph94%30.15 "Hg3 mi
8:30 pm54 °FThundershowers. Mostly cloudy.3 mph82%30.12 "HgN/A
8:00 pm59 °FSprinkles. Mostly cloudy.10 mph63%30.09 "HgN/A
7:30 pm64 °FPassing clouds.8 mph46%30.04 "HgN/A
7:00 pm68 °FPartly cloudy.8 mph38%30.04 "HgN/A
6:30 pm68 °FBroken clouds.10 mph38%30.01 "HgN/A
6:00 pm70 °FBroken clouds.6 mph33%29.98 "HgN/A
5:30 pm72 °FPartly sunny.6 mph31%29.98 "HgN/A
5:00 pm73 °FPartly sunny.13 mph29%29.95 "HgN/A
4:30 pm75 °FPartly sunny.10 mph25%29.92 "HgN/A
4:00 pm77 °FBroken clouds.8 mph24%29.89 "HgN/A
3:30 pm77 °FBroken clouds.10 mph22%29.89 "HgN/A
3:00 pm79 °FBroken clouds.6 mph20%29.89 "HgN/A
2:30 pm77 °FBroken clouds.8 mph21%29.89 "HgN/A
2:00 pm79 °FBroken clouds.8 mph21%29.89 "HgN/A
1:30 pm79 °FBroken clouds.10 mph20%29.89 "HgN/A
1:00 pm77 °FBroken clouds.10 mph22%29.89 "HgN/A
12:30 pm79 °FBroken clouds.13 mph20%29.89 "HgN/A
12:00 pm75 °FMore clouds than sun.8 mph24%29.89 "HgN/A
11:30 am75 °FBroken clouds.10 mph25%29.89 "HgN/A
11:00 am72 °FBroken clouds.6 mph29%29.89 "HgN/A
10:30 am75 °FMore clouds than sun.10 mph25%29.92 "HgN/A
10:00 am73 °FBroken clouds.8 mph29%29.89 "Hg3 mi
9:30 am63 °FBroken clouds.6 mph52%29.89 "Hg1 mi
9:00 am63 °FMostly cloudy.1 mph52%29.89 "Hg3 mi
8:30 am61 °FMostly cloudy.6 mph48%29.89 "HgN/A
8:00 am59 °FBroken clouds.3 mph59%29.89 "HgN/A
7:30 am55 °FPartly sunny.1 mph63%29.86 "HgN/A
6:30 am55 °FPassing clouds.3 mph63%29.86 "HgN/A
6:00 am57 °FPassing clouds.1 mph55%29.86 "HgN/A
5:30 am57 °FPassing clouds.1 mph55%29.86 "HgN/A
5:00 am57 °FPassing clouds.3 mph59%29.86 "HgN/A
4:30 am57 °FPassing clouds.3 mph55%29.86 "HgN/A
4:00 am55 °FPassing clouds.3 mph59%29.86 "HgN/A
3:30 am55 °FPassing clouds.3 mph59%29.86 "HgN/A
3:00 am54 °FPassing clouds.3 mph63%29.86 "HgN/A
2:30 am52 °FPassing clouds.3 mph62%29.86 "HgN/A
2:00 am54 °FPassing clouds.3 mph58%29.86 "HgN/A
Weather by CustomWeather, © 2017

See weather overviewHow to use our weather pages